Terminal Aerodrome Forecast
Issued by NWS

Home | Current Version | Previous Version | Graphics & Text | Print | Product List | Glossary On
Versions: 1 2 3 4 5 6 7 8 9 10 11 12 13 14 15 16
000
FTUS43 KMPX 210439 AAA
TAFRWF
TAF AMD
KRWF 210439Z 2105/2124 16018G26KT P6SM BKN100 WS020/19050KT
     FM211000 17016G26KT P6SM VCSH OVC060
     FM211300 17019G27KT P6SM OVC025
     FM211800 19016G24KT P6SM -RA VCTS OVC020CB
     FM212100 27012KT P6SM -SHRA OVC030
     FM212300 28010KT P6SM BKN045=

USA.gov is the U.S. government's official web portal to all federal, state and local government web resources and services.